Wappingers Falls, NY

11:14 AM EDT on August 25, 2016 (GMT -0400)
Dutchess County

Weather History for KPOU - November, 2011

Change the Weather History Date:

Monday, November 7, 2011

  Actual Average Record
Temperature  
Mean Temperature 46 °F 44 °F  
Max Temperature 64 °F 56 °F 73 °F (1975)
Min Temperature 28 °F 33 °F 15 °F (1962)
Degree Days  
Heating Degree Days 19 21  
Month to date heating degree days 156 139  
Since 1 July heating degree days 570 715  
Cooling Degree Days 0 0  
Month to date cooling degree days 0 0  
Year to date cooling degree days 908 672  
Moisture  
Dew Point 36 °F    
Average Humidity 73    
Maximum Humidity 92    
Minimum Humidity 37    
Precipitation  
Precipitation 0.00 in 0.11 in 1.42 in (1963)
Month to date precipitation 0.00 0.82  
Year to date precipitation 51.86 40.35  
Sea Level Pressure  
Sea Level Pressure 30.28 in    
Wind  
Wind Speed 1 mph (WSW)    
Max Wind Speed 8 mph    
Max Gust Speed 12 mph    
Visibility 10 miles    
Events      
T = Trace of Precipitation, MM = Missing Value Source: NWS Daily Summary

Daily Weather History Graph

Daily Weather History Graph

Search for Another Location

Airport or City:

Trip Planner

Search our weather history database for the weather conditions in past years. The results will help you decide how hot, cold, wet, or windy it might be!

Date:

Astronomy

Nov. 07, 2011 Rise Set
Actual Time 6:34 AM EST 4:43 PM EST
Civil Twilight 6:05 AM EST 5:12 PM EST
Nautical Twilight 5:32 AM EST 5:45 PM EST
Astronomical Twilight 4:59 AM EST 6:18 PM EST
Moon 2:54 PM EST (11/7) 3:32 AM EST (11/7)
Length of Visible Light 11h 07m
Length of Day
10h 09m
Waxing Gibbous, 91% of the Moon is Illuminated
Nov 7
Waxing Gibbous
Nov 10
Full
Nov 18
Last Quarter
Nov 25
New
Dec 2
First Quarter

Hourly Weather History & Observations

Time (EST) Temp. Windchill Dew Point Humidity Pressure Visibility Wind Dir Wind Speed Gust Speed Precip Events Conditions
12:53 AM 32.0 °F - 28.0 °F 85% 30.35 in 10.0 mi Calm Calm - N/A   Clear
1:53 AM 30.0 °F - 27.0 °F 88% 30.34 in 10.0 mi Calm Calm - N/A   Clear
2:53 AM 32.0 °F - 28.9 °F 88% 30.33 in 9.0 mi Calm Calm - N/A   Clear
3:53 AM 30.0 °F 26.5 °F 28.0 °F 92% 30.33 in 8.0 mi SSE 3.5 mph - N/A   Clear
4:53 AM 28.0 °F - 26.1 °F 92% 30.33 in 9.0 mi Calm Calm - N/A   Clear
5:53 AM 32.0 °F - 30.0 °F 92% 30.32 in 10.0 mi Calm Calm - N/A   Clear
6:53 AM 37.0 °F - 34.0 °F 89% 30.32 in 10.0 mi Calm Calm - N/A   Clear
7:53 AM 42.1 °F - 37.0 °F 82% 30.33 in 10.0 mi Calm Calm - N/A   Clear
8:53 AM 46.0 °F 43.1 °F 39.0 °F 76% 30.32 in 10.0 mi WSW 5.8 mph - N/A   Clear
9:53 AM 50.0 °F - 39.0 °F 66% 30.30 in 10.0 mi Variable 3.5 mph - N/A   Clear
10:53 AM 54.0 °F - 39.0 °F 57% 30.30 in 10.0 mi Calm Calm - N/A   Clear
11:53 AM 57.0 °F - 39.0 °F 51% 30.27 in 10.0 mi Variable 3.5 mph - N/A   Clear
12:53 PM 59.0 °F - 39.0 °F 48% 30.25 in 10.0 mi West 3.5 mph - N/A   Clear
1:53 PM 62.1 °F - 39.0 °F 43% 30.23 in 10.0 mi West 4.6 mph - N/A   Clear
2:53 PM 64.0 °F - 37.0 °F 37% 30.22 in 10.0 mi West 6.9 mph - N/A   Clear
3:53 PM 64.4 °F - 39.2 °F 40% 30.22 in 10.0 mi Calm Calm - N/A   Clear
4:53 PM 57.9 °F - 41.0 °F 53% 30.21 in 10.0 mi Calm Calm - N/A   Clear
5:53 PM 51.1 °F - 41.0 °F 68% 30.22 in 10.0 mi Calm Calm - N/A   Clear
6:53 PM 48.9 °F - 41.0 °F 74% 30.23 in 10.0 mi Calm Calm - N/A   Clear
7:53 PM 46.0 °F - 39.9 °F 79% 30.24 in 10.0 mi Calm Calm - N/A   Clear
8:53 PM 46.0 °F - 41.0 °F 83% 30.25 in 10.0 mi Calm Calm - N/A   Clear
9:53 PM 44.1 °F - 39.0 °F 82% 30.24 in 10.0 mi Calm Calm - N/A   Clear
10:53 PM 43.0 °F - 39.9 °F 89% 30.24 in 10.0 mi Calm Calm - N/A   Clear
11:53 PM 41.0 °F - 37.0 °F 86% 30.24 in 10.0 mi Calm Calm - N/A   Clear